Simultaneous Nadir Overpasses (SNOs) Predictions

Prediction of SNOs between GOES-17 and METOP-C Satellite Orbit:

Table of predicted SNOs for the next 14.0 days since TLE Epoch: 2/14/2020
Index Date Time (GOES-17) GOES-17 Lat,Lon METOP-C Lat,Lon Distance(km) Time Diff (sec)
1 02/16/2020 18:40:05 -0.01,-137.21 -0.08,-136.89 37.23 80
2 02/18/2020 06:56:21 0.02,-137.19 -0.96,-141.46 487.47 80
3 02/19/2020 06:38:20 0.02,-137.18 0.16,-136.46 81.91 80
4 02/20/2020 18:54:29 -0.02,-137.18 0.81,-141.01 436.35 80
5 02/21/2020 18:36:28 -0.02,-137.17 -0.31,-136.01 132.88 80
6 02/23/2020 06:52:44 0.02,-137.13 -0.73,-140.58 392.35 80
7 02/24/2020 06:34:42 0.02,-137.12 0.34,-135.56 176.73 80
8 02/25/2020 18:50:51 -0.02,-137.11 0.65,-140.12 342.18 80
9 02/26/2020 18:32:49 -0.02,-137.10 -0.47,-135.11 226.61 80
10 02/28/2020 06:49:06 0.02,-137.06 -0.55,-139.69 299.31 80




NCC Satellite Simultaneous Nadir Overpasses (SNOs) Prediction Service
